Погода в Чайковском

Россия / Пермский край     56°46′41″N   54°08′51″E
темп.,
°C
ветер,
м/с
пор.,
м/с
влажн.,
%
обл.,
%
осадки,
мм/ч
давл.,
гПа
погр.,
м
23 июня, ср
ср2323:00+22сз296937 0.0 1017159
02:00+19з2108298 0.0 1016182
05:00+20зсз278669 0.0 1016130
08:00+24ссз37721 0.0 1016382
11:00+28с355099 0.0 1016997
14:00+31ссз474120 0.0 10162171
17:00+30с6943100 0.3 10142278
20:00+21всв2495100 3.8 1016172
24 июня, чт
чт2423:00+18ююз119776 4.4 101811
02:00+17в11966 0.0 101811
05:00+17вюв009690 0.0 101911
08:00+20ююз1189100 0.0 1019186
11:00+26зюз2358100 0.0 10181034
14:00+29з444996 0.0 10171782
17:00+28юз346199 1.6 1016796
20:00+21ююз6997100 12.2 1015283
25 июня, пт
пт2523:00+19сз119779 17.1 101428
02:00+17зюз28987 0.2 1014267
05:00+17юз119978 0.2 101418
08:00+19сз239465 0.0 1014283
11:00+25зсз236211 0.0 1013766
14:00+29зсз335256 0.0 10121324
17:00+31сз354669 0.0 10111939
20:00+28зюз256640 0.0 1010147
26 июня, сб
сб2623:00+23зсз22890 0.4 101025
02:00+20зюз11945 0.0 101011
05:00+19сз22910 0.0 101027
08:00+23сз367347 0.0 1011277
11:00+28ссз34535 0.0 1010936
14:00+30ссз334514 0.0 10102099
17:00+30ссз46405 0.0 10112280
20:00+27с37562 0.0 1011409
27 июня, вс
вс2723:00+20всв25775 0.0 1012104
02:00+17в27842 0.0 1013125
05:00+15всв24885 0.0 101384
08:00+20св35665 0.0 1014362
11:00+23св355236 0.0 10141124
14:00+26св34445 0.0 10141770
17:00+27ссв33417 0.0 10141985
20:00+24св126084 0.0 101466